Location: Haliburton Scout Reserve
(45.0900°N, 78.3200°W)
Time: 01:42:54
(UTC-04:00)

ESTCUBE 1 - Pass Details

Date: 18 May 2022
Orbit: 644 x 659 km, 97.9° (Epoch: 27 June)

Event Time Altitude Azimuth Distance (km) Brightness Sun altitude
Exits shadow 00:48:28 12° 263° (W) 1,907 ? -25.2°
Maximum altitude 00:49:05 13° 271° (W) 1,889 ? -25.2°
Drops below altitude 10° 00:51:05 10° 298° (WNW) 2,071 ? -25.2°
Sets 00:54:36 0° 327° (NNW) 2,986 ? -25.3°
